#timestamp,LO_Frequency,Hit,StdDev 
1644008415.1,286047004.3,Y
1644008435.9,286047002.1,P
1644008455.7,286047001.8,N
1644008475.5,286047001.5,N
1644008495.4,286047001.8,Y
1644008515.2,286047000.0,P
1644008535.1,286047002.6,P
1644008536.0,286047002.6,N
1644008555.8,286047002.6,N
1644008575.6,286047000.0,N
1644008595.5,286047000.4,N
1644008615.3,286047000.0,N
1644008635.1,286047001.8,N
1644008655.9,286047003.9,Y
1644008675.7,286047000.2,P
1644008695.6,286047000.2,N
1644008715.4,286047000.4,N
1644008735.2,286047002.3,Y
1644008755.1,286047000.6,P
1644008756.0,286047000.6,P
1644008775.8,286047001.1,P
1644008795.7,286047000.4,N
1644008815.5,286046998.1,Y
1644008835.3,286046998.2,P
1644008855.2,286047002.7,N
1644008875.0,286047001.6,N
1644008875.9,286047001.6,N
1644008895.8,286047000.2,N
1644008915.6,286047000.9,N
1644008935.4,286047001.2,N
1644008955.3,286046999.5,N
1644008975.1,286046996.6,N
1644008995.8,286046998.8,N
1644009015.7,286047000.6,N
1644009035.5,286046998.1,N
1644009055.4,286047000.9,N
1644009075.2,286047000.7,N
1644009095.0,286046998.2,N
1644009095.9,286046998.2,N
1644009115.8,286046998.6,N
1644009135.6,286046996.9,N
1644009155.5,286046999.6,N
1644009175.3,286046996.6,N
1644009195.1,286046996.8,N
1644009215.9,286046999.2,N
1644009235.7,286046999.3,N
1644009255.5,286046999.0,N
1644009275.4,286046999.0,N
1644009295.2,286046998.7,N
1644009315.1,286046998.6,N
1644009316.0,286046998.6,N
1644009335.8,286046998.8,N
1644009355.6,286046996.5,N
1644009375.5,286046996.7,N
1644009395.3,286046996.7,N
1644009415.1,286046997.1,N
1644009435.9,286046996.5,N
1644009455.7,286046999.1,N
1644009475.6,286046999.2,N
1644009495.4,286046999.0,N
1644009515.2,286046999.0,N
1644009535.1,286046999.3,N
1644009536.0,286046999.3,N
1644009555.8,286046996.5,N
1644009575.7,286046996.9,N
1644009595.5,286046997.1,N
1644009615.3,286046997.2,N
1644009635.2,286046997.2,N
1644009655.0,286046994.9,Y
1644009655.9,286046994.9,P
1644009675.8,286046999.4,N
1644009695.6,286046999.4,N
1644009715.4,286046996.5,N
1644009735.3,286046998.1,N
1644009755.1,286047000.0,N
1644009775.9,286047000.6,N
1644009795.7,286047001.1,N
1644009815.5,286046998.2,N
1644009835.4,286046998.4,N
1644009855.2,286046999.3,N
1644009875.0,286046998.2,N
1644009875.9,286046998.2,N
1644009895.8,286047000.7,N
1644009915.6,286047001.2,N
1644009935.5,286047000.6,N
1644009955.3,286047000.9,N
1644009975.1,286046998.5,N
1644009995.9,286047001.2,N
1644010015.7,286047000.0,N
1644010035.5,286047002.4,N
1644010055.4,286047002.2,N
1644010075.2,286047002.0,N
1644010095.1,286047001.7,N
1644010096.0,286047001.7,N
1644010115.8,286047002.2,N
1644010135.6,286047002.0,N
1644010155.5,286047001.7,N
1644010175.3,286047001.6,N
1644010195.1,286047002.5,N
1644010215.9,286047001.6,N
1644010235.7,286047001.4,N
1644010255.6,286047001.5,N
1644010275.4,286047001.7,N
1644010295.2,286047001.4,N
1644010315.1,286047002.6,N
1644010316.0,286047002.6,N
1644010335.8,286047000.8,N
1644010355.6,286047000.0,N
1644010375.5,286047000.4,N
1644010395.3,286047000.6,N
1644010415.2,286047002.1,N
1644010435.9,286047001.5,N
1644010455.7,286047006.8,Y
1644010475.6,286047021.1,P
1644010495.4,286047019.5,N
1644010515.2,286047014.8,N
1644010535.1,286047014.0,N
1644010536.0,286047014.0,N
1644010555.8,286047009.8,N
1644010575.7,286047008.1,N
1644010595.5,286047005.4,N
1644010615.4,286047003.5,N
1644010635.2,286047003.9,N
1644010655.0,286047003.6,N
1644010655.9,286047003.6,N
1644010675.8,286047003.8,N
1644010695.6,286047004.2,N
1644010715.4,286047003.9,N
1644010735.3,286047002.6,N
1644010755.1,286047002.2,N
1644010775.9,286047002.5,N
1644010795.7,286047002.6,N
1644010815.5,286047000.0,N
1644010835.4,286047002.5,N
1644010855.2,286047002.8,N
1644010875.0,286047001.9,N
1644010875.9,286047001.9,N
1644010895.8,286047002.1,N
1644010915.6,286047003.9,N
1644010935.5,286047003.6,N
1644010955.3,286047003.9,N
1644010975.1,286047001.7,N
1644010995.9,286047002.2,N
1644011015.7,286047004.4,N
1644011035.5,286047000.1,N
1644011055.4,286047000.7,N
1644011075.2,286047000.2,N
1644011095.1,286047002.8,N
1644011096.0,286047002.8,N
1644011115.8,286047002.7,N
1644011135.6,286047002.2,N
1644011155.5,286046999.8,N
1644011175.3,286047002.2,N
1644011195.1,286047002.1,N
1644011215.9,286046999.7,N
1644011235.7,286046999.7,N
1644011255.6,286047000.0,N
1644011275.4,286047002.6,N
1644011295.2,286047000.0,N
1644011315.1,286047002.1,N
1644011316.0,286047002.1,N
1644011335.8,286047002.6,N
1644011355.7,286047002.1,N
1644011375.5,286047001.8,N
1644011395.3,286047001.7,N
1644011415.2,286047002.1,N
1644011435.0,286047003.6,N
1644011435.9,286047003.6,N
1644011455.7,286047002.5,N
1644011475.6,286047002.1,N
1644011495.4,286047002.5,N
1644011515.3,286046999.8,N
1644011535.1,286047000.8,N
1644011555.8,286046998.2,N
1644011575.7,286046998.8,N
1644011595.5,286047000.7,N
1644011615.4,286046999.7,N
1644011635.2,286047002.0,N
1644011655.0,286047000.4,N
1644011655.9,286047000.4,N
1644011675.8,286046998.4,N
1644011695.6,286047000.4,N
1644011715.5,286047000.0,N
1644011735.3,286047001.0,N
1644011755.1,286047000.1,N
1644011775.9,286046999.9,N
1644011795.7,286046999.7,N
1644011815.5,286046998.5,N
1644011835.4,286046998.2,N
1644011855.2,286046998.1,N
1644011875.1,286046998.2,N
1644011876.0,286046998.2,N
1644011895.8,286047002.7,N
1644011915.6,286046999.9,N
1644011935.5,286047000.6,N
1644011955.3,286047001.1,N
1644011975.1,286046999.8,N
1644011995.9,286047002.3,N
